Theta_e
320 319 319 318 318 318 319 319 319 320 320 320 321 322 323 323 324 325 325 326 325 325 325 325 325 326 326 326 326 326 326 327 328 328 327 327 325 327 329 331 335 334 331 322 315 312 310 309 308 309 315 324 327 320 314 312 312 312 312 311 313 315 318 318 315 316 316 314 314 314 313 310 311 311 311 311 311 312 312 311 311 311 311 311 311
320 319 319 318 318 318 319 319 319 319 320 320 320 321 322 322 323 324 324 324 324 323 323 324 324 325 325 325 326 325 324 323 323 322 320 318 317 320 323 327 331 331 325 317 315 313 309 309 310 316 324 325 319 313 312 312 312 313 315 317 318 322 324 324 323 323 323 322 322 322 318 313 311 311 311 311 311 311 311 311 311 312 312 312 312
320 319 319 319 319 319 320 320 320 320 320 320 321 321 321 322 322 323 323 323 322 322 322 322 322 322 322 323 323 323 322 320 319 318 316 314 313 313 316 323 326 324 319 316 316 311 309 313 318 324 324 318 312 312 313 312 314 317 320 321 324 326 327 328 327 326 327 327 328 327 324 317 313 312 312 312 312 313 313 312 313 313 313 314 314
320 320 320 319 319 319 320 320 320 320 320 320 321 321 320 321 322 322 322 322 321 321 321 321 320 319 319 319 320 320 318 317 316 314 312 312 312 312 314 318 319 318 316 318 317 312 314 320 324 324 316 312 312 313 313 314 316 319 323 325 327 328 328 328 327 326 327 328 329 329 325 318 315 315 314 315 315 315 315 316 316 316 316 316 316
321 320 320 319 319 319 320 321 320 321 320 321 320 320 320 321 321 321 321 321 320 320 320 319 318 316 315 315 315 315 314 314 313 311 310 310 310 311 312 314 316 316 316 319 318 317 321 324 323 317 312 312 312 313 314 315 317 321 324 326 327 328 328 328 327 326 326 329 328 328 324 318 316 316 316 316 316 316 316 316 316 317 317 317 318
325 319 320 320 319 320 319 320 321 320 321 321 320 320 320 321 321 321 321 320 320 320 319 317 315 313 313 312 312 312 312 311 310 310 309 310 310 310 311 313 315 315 316 318 319 321 324 323 318 313 312 313 312 313 313 315 318 322 326 327 328 328 328 328 328 327 328 329 328 327 325 319 318 319 318 318 318 317 317 317 317 317 318 318 318
329 322 320 320 319 319 320 321 321 320 321 320 320 320 320 321 321 320 320 320 319 319 317 315 313 311 311 311 311 311 310 309 309 309 309 310 311 311 312 314 314 314 316 317 318 320 320 317 313 312 313 312 313 312 312 314 317 321 325 327 327 327 327 327 327 326 327 328 328 329 328 324 322 322 322 322 322 321 321 320 319 319 319 319 320
331 324 319 320 320 319 320 320 321 320 320 320 320 320 320 320 320 321 320 320 320 318 316 314 312 311 311 311 311 310 310 309 309 309 309 311 312 312 313 313 314 314 315 314 315 316 314 313 312 313 312 312 312 312 312 313 315 319 323 326 326 326 327 327 327 327 327 328 329 330 329 326 323 323 324 325 325 325 325 324 323 323 323 322 323
331 324 320 321 320 319 320 320 321 320 320 320 320 320 320 320 320 321 320 320 319 318 316 313 312 312 312 311 311 311 310 310 310 310 310 312 311 312 312 312 314 314 314 313 313 313 312 312 313 312 312 312 312 312 312 314 318 322 325 327 327 327 328 329 329 329 330 330 331 331 330 327 324 323 324 325 326 326 326 326 326 326 326 325 326
331 323 321 321 320 320 320 320 320 319 320 320 320 320 320 321 320 321 321 320 319 318 316 313 312 312 312 312 311 310 310 310 310 310 311 311 312 312 312 313 314 314 314 313 312 312 313 313 312 312 312 312 312 312 313 315 319 324 327 328 329 329 330 331 331 329 330 331 331 332 331 329 327 325 323 324 325 325 326 326 326 326 327 327 327
332 322 321 320 320 320 320 320 320 319 320 320 320 320 320 321 321 321 321 319 319 318 316 313 312 312 311 312 312 311 310 311 311 311 312 312 312 312 313 313 313 313 313 313 312 312 312 312 312 312 312 312 313 312 313 315 320 326 328 329 330 331 331 332 332 330 330 331 331 331 331 330 330 329 326 324 325 325 325 326 327 328 329 329 329
333 323 321 320 320 320 319 319 319 320 319 320 320 320 320 321 321 321 321 320 319 318 316 314 312 312 311 312 311 311 311 312 312 312 312 312 313 313 313 313 313 313 313 312 312 312 312 312 312 312 312 313 313 314 315 316 320 326 329 331 331 330 331 332 331 330 330 332 331 331 332 332 332 332 328 326 326 326 326 327 328 329 330 330 331
335 324 320 320 321 320 320 319 319 319 319 319 319 320 320 321 321 321 321 320 319 318 316 313 312 311 311 311 311 311 311 312 313 313 313 313 313 313 314 313 313 313 312 312 312 312 312 312 312 312 313 314 315 316 317 319 321 325 328 328 328 329 331 331 331 330 330 331 332 332 331 332 332 331 329 328 327 327 327 328 329 330 330 331 331
340 331 323 319 320 320 319 319 319 319 319 319 319 320 320 321 322 321 320 320 320 319 317 314 312 311 311 311 311 311 312 313 314 314 313 313 313 314 314 314 313 313 313 312 312 313 313 313 314 316 317 318 318 319 319 320 321 322 323 321 322 327 331 331 331 331 330 331 332 332 332 332 332 331 330 329 328 327 328 329 330 330 331 331 331
343 339 327 318 320 319 319 319 318 318 318 319 319 319 321 321 321 321 321 320 321 320 318 314 312 311 311 311 310 310 312 313 314 315 314 313 313 314 314 314 314 314 313 313 313 313 314 316 318 319 319 320 319 319 319 319 319 319 318 317 316 321 327 331 332 331 331 331 332 332 332 332 332 332 331 330 328 328 329 329 330 330 331 331 331
344 342 331 319 319 319 319 319 318 318 318 319 319 320 321 320 321 321 320 321 321 320 319 315 312 312 311 311 311 310 312 313 315 314 314 314 313 314 315 315 315 314 315 314 315 315 316 318 319 319 318 318 318 317 316 315 316 315 315 316 314 319 328 331 333 332 331 332 333 333 333 332 332 332 331 330 329 329 329 329 330 330 331 332 332
343 341 330 319 319 319 318 319 318 317 318 319 319 320 320 321 321 320 321 321 321 321 319 316 313 311 311 311 310 310 311 313 314 315 315 314 315 316 316 316 315 316 316 316 316 316 317 318 318 317 317 316 315 315 316 318 320 320 320 316 314 325 332 332 332 332 331 332 333 333 333 333 332 332 331 330 329 329 329 329 330 330 331 332 331
342 341 331 320 319 319 319 319 319 318 317 319 319 320 320 320 320 320 321 322 322 322 320 318 314 312 311 311 310 310 310 312 314 315 315 315 316 317 317 316 316 316 315 315 316 316 317 318 318 317 316 314 313 317 324 328 329 329 327 320 318 330 333 331 332 332 332 333 333 333 333 333 333 333 332 331 330 329 329 329 329 330 330 331 331
344 344 337 327 320 319 319 319 320 319 317 318 319 319 320 320 320 321 321 322 323 322 321 319 316 314 311 310 310 310 310 310 312 314 315 315 316 316 316 315 315 315 315 315 315 316 317 318 318 316 314 312 315 325 331 332 332 332 331 326 326 332 333 332 332 332 333 333 333 333 333 334 333 333 332 331 329 328 328 327 327 328 330 330 331
346 346 344 338 329 322 320 320 320 319 318 317 319 319 319 320 320 321 321 322 323 322 322 320 318 316 312 311 310 310 309 310 311 313 314 315 315 315 315 315 314 314 314 314 314 315 316 316 315 313 314 315 321 330 332 332 334 333 333 332 332 333 333 332 333 333 334 333 334 334 334 334 333 332 330 329 327 326 326 326 327 328 329 330 330
347 346 346 343 339 331 323 321 321 320 318 317 318 318 318 320 320 321 322 323 325 324 322 321 319 317 314 312 311 310 310 310 309 310 312 312 313 313 313 313 313 313 313 313 314 314 314 313 313 315 322 325 327 331 332 334 335 335 334 334 334 334 334 334 333 334 334 334 334 334 333 333 333 331 330 328 326 326 326 326 327 328 329 330 330
347 347 346 343 342 337 329 323 321 321 319 317 317 317 318 319 320 321 323 325 327 325 323 323 321 320 317 313 311 310 310 309 309 310 311 311 312 312 312 313 312 312 312 312 312 312 313 314 316 324 330 330 330 331 332 334 335 334 333 333 334 334 334 334 334 334 334 334 333 332 332 332 332 331 331 329 328 327 327 329 329 330 330 330 330
346 346 345 342 340 338 332 325 322 322 319 318 317 317 317 319 320 322 324 326 326 326 324 323 322 322 320 316 312 311 310 309 309 310 310 310 311 312 312 312 312 312 312 312 312 316 322 322 325 331 332 332 331 332 333 334 333 332 331 332 334 334 333 333 333 334 334 333 332 332 332 332 332 331 331 330 329 330 330 331 331 330 331 330 331
345 344 343 342 338 336 333 328 323 322 320 319 319 319 319 319 321 324 325 326 326 326 325 325 324 323 322 320 315 311 310 309 310 310 309 310 311 311 312 312 311 312 312 312 315 323 329 329 331 332 333 334 334 333 333 333 332 332 332 333 333 333 332 333 333 333 333 332 332 332 333 333 331 330 330 330 330 331 331 331 331 330 330 330 331
343 344 342 342 338 332 331 329 325 323 321 320 320 321 320 320 323 325 326 326 327 326 326 325 325 324 323 321 317 312 309 310 310 310 309 309 310 310 311 311 311 312 312 314 320 327 331 333 334 334 335 336 334 333 332 332 332 332 333 334 332 332 332 333 333 333 333 333 333 334 333 332 330 329 330 330 331 331 331 331 331 330 328 329 330
343 344 342 343 338 329 327 328 326 324 321 320 319 319 320 321 323 325 326 328 329 328 327 327 326 326 325 323 319 312 309 310 310 309 310 310 310 310 310 311 311 312 313 317 326 332 334 335 335 335 336 335 333 332 331 332 332 332 334 334 332 333 333 333 334 334 334 334 334 333 332 331 329 329 329 329 330 329 329 328 328 328 327 327 328
342 342 343 342 339 331 327 326 325 325 322 320 319 319 320 322 324 326 329 331 331 331 331 330 328 326 324 322 317 312 311 310 310 310 310 310 310 310 310 311 312 314 319 326 332 334 335 335 335 334 334 334 333 332 332 332 332 332 333 333 333 333 333 333 334 334 334 334 334 332 331 330 329 329 328 328 327 327 327 325 324 324 324 325 325
341 342 343 342 340 336 331 327 325 325 323 322 321 321 322 323 326 330 332 333 333 333 333 331 328 326 323 319 314 312 312 311 312 311 310 312 313 315 315 314 318 324 330 334 335 334 335 336 334 334 334 333 333 331 331 331 331 331 332 333 333 333 334 333 333 333 334 334 333 331 330 329 328 326 325 326 326 325 323 321 319 319 320 320 318
340 342 343 342 341 338 333 329 327 326 324 324 324 325 326 327 330 333 334 334 334 335 334 331 330 328 326 319 313 311 311 313 314 315 318 321 323 325 324 323 324 328 333 334 334 332 334 335 334 334 334 333 332 330 330 330 330 332 332 332 333 333 333 332 332 332 333 332 331 330 329 327 325 323 323 323 320 317 313 311 309 308 309 309 308
340 342 343 342 341 339 336 331 329 329 328 328 327 327 329 330 333 335 336 335 336 336 334 331 329 328 327 318 313 315 315 316 319 322 329 330 327 327 327 327 328 330 333 333 332 329 330 334 334 334 334 333 332 330 329 329 330 332 332 332 332 332 332 331 331 331 332 331 329 328 326 324 323 322 319 314 310 306 304 303 302 302 302 302 302
341 343 343 342 341 340 338 334 332 333 332 332 329 331 334 333 335 337 337 337 337 337 333 330 328 327 326 317 316 322 322 324 327 329 331 328 325 326 327 329 331 332 332 330 329 329 331 334 335 335 334 334 332 330 330 330 331 332 332 332 332 331 330 330 330 330 329 328 326 324 323 323 321 316 309 304 303 302 302 302 302 302 301 301 301
340 343 343 342 341 340 340 336 334 334 335 334 333 335 336 335 337 338 338 339 338 337 333 331 329 327 328 322 319 326 330 331 330 327 326 325 328 329 329 330 331 331 331 328 329 329 332 334 335 335 333 332 330 329 330 330 331 331 331 331 330 330 330 329 328 327 326 325 323 322 323 321 314 308 303 302 302 302 302 302 302 302 301 302 302
339 342 342 342 341 340 340 338 336 337 336 336 337 338 338 338 338 339 340 339 338 337 334 331 330 331 330 324 322 331 335 331 326 326 326 328 332 333 332 333 332 332 331 330 329 329 331 333 333 332 332 331 330 329 330 329 330 330 329 330 330 330 329 328 326 325 324 324 323 321 318 312 305 303 302 302 302 302 302 302 302 301 301 301 301
338 341 342 342 341 340 340 339 338 338 337 338 339 340 340 340 338 339 340 339 338 337 335 331 332 334 328 322 327 335 335 329 329 332 331 331 334 334 334 333 331 331 331 330 330 331 333 333 331 330 332 332 330 329 329 329 329 329 329 329 329 329 328 327 325 325 324 323 322 317 309 304 302 302 302 302 302 302 302 301 302 301 302 301 301
338 341 342 341 341 340 339 339 339 339 338 338 340 340 340 341 340 340 340 338 338 337 336 333 334 332 321 319 330 334 331 329 331 334 333 333 334 333 334 332 329 328 330 331 332 332 334 333 331 331 332 331 330 329 329 329 329 329 330 329 329 328 327 326 325 325 322 318 317 310 303 302 302 302 301 301 301 302 301 301 301 301 302 300 301
337 339 341 341 341 340 339 339 339 339 339 338 340 340 339 341 340 340 340 338 338 337 337 335 334 329 315 315 327 330 328 329 330 331 332 334 334 333 331 329 328 328 330 332 333 333 334 334 332 332 331 330 330 329 329 329 329 329 329 329 329 327 327 326 325 321 313 309 307 303 302 302 302 302 302 301 301 302 301 301 301 301 301 300 300
338 339 340 341 340 340 339 338 339 339 339 339 341 340 339 340 340 341 340 339 339 337 337 336 333 327 318 315 324 329 329 330 331 331 331 333 335 332 330 329 329 328 330 332 333 333 334 334 333 332 330 329 329 329 329 329 330 329 329 329 328 328 328 324 319 313 306 302 302 302 302 302 301 301 301 301 301 301 301 300 300 300 300 300 299
339 339 339 340 340 340 339 338 339 339 340 340 341 341 339 340 341 340 340 340 339 338 337 336 332 329 324 320 324 329 330 331 332 331 331 333 334 331 329 330 329 328 330 332 333 334 334 334 333 332 330 329 329 328 329 329 330 329 330 329 328 329 325 314 309 305 302 302 302 302 301 301 301 301 300 301 300 300 300 300 300 300 299 299 299
340 339 340 340 340 340 339 339 340 339 340 340 341 340 340 340 340 340 340 340 339 339 337 335 332 329 328 326 325 327 328 330 331 330 331 332 332 330 328 329 328 328 330 331 333 333 333 333 332 332 331 328 328 328 328 329 331 330 330 329 329 327 317 305 302 303 302 302 302 301 301 301 301 300 300 300 300 300 300 300 300 299 299 299 299
340 340 340 340 340 340 340 341 341 339 339 340 341 340 339 340 340 340 340 340 339 339 336 334 331 330 331 329 328 328 328 329 328 328 330 331 330 327 328 329 328 329 329 331 333 333 333 333 330 330 331 329 326 327 328 329 331 330 330 329 327 321 308 302 302 302 302 301 301 301 301 300 300 300 300 299 300 299 300 299 299 299 299 299 298
341 340 340 341 340 341 341 341 341 340 340 340 340 340 339 339 339 339 340 340 340 338 336 335 332 330 332 331 330 330 329 328 327 327 330 330 328 327 328 330 330 330 330 332 333 333 334 334 331 327 328 329 327 327 328 330 330 330 328 327 323 314 304 302 302 301 301 301 300 301 300 300 300 300 300 299 299 299 299 299 299 299 299 298 298
340 341 341 341 341 341 341 341 341 340 340 341 341 339 339 338 338 339 340 340 339 337 336 335 333 332 332 331 331 332 331 329 327 327 329 329 327 327 329 330 331 330 330 331 333 334 334 334 332 327 323 325 326 326 327 329 330 329 327 325 321 313 305 304 302 300 300 300 300 300 300 300 300 300 300 299 299 299 299 299 299 299 299 299 298
340 341 342 342 342 342 342 341 341 340 340 341 340 339 339 338 338 338 339 340 339 336 336 335 334 333 333 332 333 334 333 331 328 328 329 328 327 328 329 331 331 330 330 331 331 333 334 333 331 325 320 321 323 324 326 327 329 329 327 325 323 317 309 305 303 300 300 300 300 300 300 300 300 300 300 299 300 299 299 298 298 298 299 299 298
341 342 343 343 343 342 342 341 341 340 340 341 340 339 339 339 339 338 339 339 338 336 336 337 336 335 335 334 334 335 334 333 331 330 330 329 328 329 330 331 331 330 331 331 331 333 334 333 331 325 318 319 321 322 325 327 328 328 327 327 326 323 315 307 303 301 301 303 303 303 302 301 301 301 300 300 299 299 299 299 298 298 298 298 298
342 342 343 343 342 342 342 341 341 340 339 340 340 339 338 338 339 339 339 338 337 336 337 337 337 336 336 334 334 335 335 334 333 332 331 330 329 329 330 331 330 330 330 330 330 331 333 332 330 325 318 318 320 320 321 324 328 327 327 327 325 326 322 311 305 303 304 306 307 306 304 303 302 302 301 300 300 299 299 298 298 298 298 298 299
343 343 343 343 342 342 343 342 341 340 340 340 340 340 339 338 339 338 337 338 337 336 337 337 336 336 335 334 334 335 334 334 332 331 331 330 328 328 329 330 330 329 329 329 329 330 331 331 328 323 317 317 320 319 315 318 326 329 327 327 325 325 326 317 308 306 305 308 310 308 306 304 303 302 302 302 301 301 300 299 298 298 298 299 300
344 344 343 342 341 342 343 342 341 340 339 339 339 339 339 337 337 336 336 337 336 336 336 336 336 335 334 334 335 335 333 333 331 330 330 330 329 327 327 329 329 330 330 330 331 330 330 328 324 320 317 318 321 320 314 312 321 327 328 328 327 327 328 323 314 309 307 308 310 308 305 305 304 303 302 302 302 302 301 299 298 298 299 299 301
344 344 343 341 340 341 341 341 341 340 339 339 338 338 338 337 336 336 336 337 336 335 334 335 335 334 334 334 335 335 333 332 331 330 330 330 329 327 327 328 330 331 330 331 331 331 330 325 319 317 317 317 319 321 316 310 314 323 326 328 329 329 328 325 319 315 311 309 310 309 306 304 304 303 302 302 302 302 302 300 298 298 299 300 301
344 343 341 339 339 340 341 341 340 339 339 338 338 338 337 336 336 336 337 337 336 334 334 334 335 334 334 334 335 334 332 331 331 330 330 330 329 328 328 329 330 330 330 331 331 330 330 324 317 315 316 315 317 319 316 308 308 317 323 326 328 328 326 323 319 317 314 311 310 309 307 305 304 304 303 302 302 302 302 300 298 298 299 300 301
343 341 339 338 339 341 341 341 340 339 339 338 338 337 336 336 336 336 336 336 335 335 334 334 334 334 334 334 334 333 332 331 330 331 330 330 329 329 330 331 330 330 331 331 330 329 328 322 316 315 315 314 315 317 314 307 305 311 317 320 322 323 323 322 318 316 314 311 310 310 307 305 304 304 303 302 302 302 303 301 298 298 299 300 300
342 341 339 339 340 342 342 342 340 339 339 337 337 336 336 336 336 336 336 335 334 334 334 334 334 334 334 334 333 332 332 331 330 330 330 330 329 330 331 332 331 331 331 331 330 327 324 319 316 314 314 313 314 313 311 307 304 307 312 314 316 318 320 319 316 314 314 310 310 309 306 305 305 303 302 302 303 302 303 301 299 298 299 300 300
Wind_Speed
22 20 19 20 20 19 19 18 18 17 18 17 17 17 16 16 15 14 13 12 12 12 11 11 11 11 11 11 11 11 11 11 11 11 10 9 9 9 9 10 10 10 9 9 10 11 12 13 15 18 21 22 21 22 25 26 25 24 23 22 22 21 20 20 19 20 20 20 19 19 17 15 14 14 13 13 12 12 12 11 11 10 10 11 10
24 22 20 21 20 20 20 18 18 17 17 17 17 17 16 16 15 14 13 12 11 11 11 11 10 10 10 10 11 11 10 10 9 9 9 8 8 8 9 10 10 9 9 10 11 13 15 17 19 22 22 21 22 25 26 25 24 23 22 22 21 19 18 18 17 17 18 18 19 19 18 16 14 13 13 13 13 12 12 11 10 10 10 11 11
24 23 21 21 21 20 20 19 18 17 17 17 17 16 16 16 15 14 13 12 11 11 11 10 10 10 10 10 10 10 9 8 8 8 8 8 9 9 10 10 9 9 10 12 13 15 18 20 22 22 22 22 25 25 25 24 23 23 22 21 20 19 17 15 14 14 16 16 17 18 18 16 14 13 13 13 12 12 12 11 11 11 11 11 11
23 23 23 22 21 21 20 19 18 17 17 16 16 16 16 16 15 14 13 12 11 11 11 10 10 10 10 10 10 10 9 8 7 7 9 9 10 11 12 11 10 10 12 13 15 17 20 21 21 21 22 24 25 24 23 23 22 22 21 20 19 18 15 13 12 12 14 15 16 17 18 16 14 13 13 12 13 12 12 12 11 11 11 11 11
22 22 23 23 22 21 20 19 18 18 17 16 16 16 16 15 15 14 13 12 11 11 11 10 10 10 10 10 10 10 10 9 8 8 9 10 11 12 13 12 11 12 13 14 16 18 20 20 20 22 23 24 23 22 22 21 21 21 20 19 18 17 14 13 11 11 12 14 16 17 18 16 14 14 14 14 14 14 13 13 12 12 12 12 12
22 22 23 23 22 22 20 19 18 18 17 17 16 16 16 15 15 14 13 12 11 11 11 11 10 11 11 10 10 10 10 10 10 9 10 11 12 14 14 14 14 15 15 16 17 18 19 20 21 22 23 22 21 21 20 21 21 20 19 18 17 15 13 12 11 11 11 13 14 16 17 15 15 15 15 14 14 14 14 14 13 13 13 13 13
21 21 23 23 23 22 21 20 19 18 18 17 17 16 16 15 14 14 13 12 12 11 11 11 11 11 11 11 11 11 11 11 11 10 11 12 13 15 15 16 16 17 17 17 18 19 20 21 22 22 22 21 20 19 20 20 19 18 18 16 16 14 12 11 10 10 10 11 12 14 15 15 15 15 15 14 14 14 14 15 15 15 14 14 14
22 21 22 23 23 22 21 20 19 19 18 18 17 16 16 15 14 13 13 12 12 11 11 12 11 11 11 11 11 11 11 11 11 11 12 13 14 15 16 16 17 18 18 18 18 19 20 21 21 21 20 19 19 18 19 18 18 17 16 15 14 13 12 10 9 9 10 10 11 14 14 14 15 15 15 15 15 15 15 15 15 15 15 15 15
22 22 22 23 23 22 22 21 20 19 19 18 17 17 16 15 14 13 12 12 12 11 11 12 12 11 11 11 11 12 12 12 12 12 13 14 15 15 16 17 18 18 18 17 17 18 19 19 19 19 18 18 17 17 17 17 17 16 15 14 13 12 11 9 7 9 11 10 11 12 13 14 15 16 16 16 15 15 15 14 14 14 14 15 15
23 24 23 23 23 23 22 22 20 20 19 18 17 17 16 15 14 13 13 12 11 11 11 12 12 11 11 11 11 12 12 12 13 13 13 14 16 16 16 17 18 18 17 16 16 17 17 17 17 17 16 16 16 16 16 16 15 14 14 13 12 11 10 8 5 6 10 10 10 11 12 13 14 16 17 16 15 14 14 14 14 14 14 14 14
23 25 24 23 23 23 22 22 21 20 19 19 17 16 16 15 14 13 13 12 12 11 11 11 12 12 11 11 11 12 13 13 13 13 13 14 16 16 17 17 17 17 17 16 15 15 15 15 15 15 14 14 14 14 14 13 13 13 13 12 11 10 9 8 4 5 8 8 9 10 11 12 13 15 16 16 15 14 14 14 14 14 14 14 14
24 25 25 24 23 23 23 22 21 21 20 19 17 16 16 15 14 14 13 12 12 11 10 11 12 12 11 11 12 12 13 13 13 13 14 14 15 16 16 16 16 17 16 15 14 14 14 14 13 13 12 12 12 12 11 10 11 11 12 11 10 9 8 8 5 4 6 7 7 9 11 12 12 13 15 17 16 14 14 14 14 14 14 14 14
24 24 26 25 25 24 23 22 21 21 20 19 18 17 16 15 15 13 13 12 12 11 10 11 12 12 12 11 12 12 13 13 13 13 14 14 14 15 15 16 15 15 15 14 14 13 13 12 11 11 10 9 9 9 9 8 9 10 10 9 7 7 7 7 5 4 5 5 5 7 10 11 12 13 15 17 16 15 14 13 14 14 14 14 15
22 24 26 25 26 24 23 22 21 21 20 19 18 17 16 15 15 13 13 12 12 11 11 11 12 12 12 12 12 13 13 13 13 13 14 14 14 14 14 15 14 14 14 13 12 12 11 11 10 9 8 8 7 7 7 7 7 7 6 5 5 5 5 5 4 3 5 4 4 6 8 10 11 12 14 16 16 14 13 13 13 13 14 14 14
18 22 25 26 26 25 24 22 22 21 20 20 18 17 16 15 14 13 12 12 12 11 11 11 12 12 12 12 12 13 13 13 13 13 14 14 14 14 13 13 13 13 12 12 11 11 10 9 8 8 8 7 7 7 6 6 5 4 3 3 4 3 3 4 3 3 5 5 3 5 6 9 10 11 13 14 14 12 12 12 12 13 13 13 14
15 20 25 27 26 26 25 23 22 21 21 20 19 17 16 15 14 13 12 12 12 11 11 10 11 12 12 12 12 13 13 13 12 13 13 14 14 13 13 12 12 12 11 11 10 9 9 8 7 7 7 6 6 6 5 5 4 4 3 3 3 4 4 3 3 4 5 5 3 4 6 8 10 11 12 13 12 12 11 11 12 13 14 13 14
13 18 26 27 26 26 25 24 23 21 21 20 19 18 16 15 14 13 12 12 12 11 11 10 11 11 12 12 13 14 14 14 13 13 13 13 13 12 12 12 11 11 10 9 9 8 8 7 6 5 5 5 5 5 5 5 5 5 4 4 4 6 5 2 4 6 6 5 3 5 6 8 10 11 12 11 11 11 12 12 13 14 14 14 14
13 16 22 26 26 26 26 25 24 23 22 21 20 18 16 15 14 13 12 12 12 11 11 11 12 11 12 12 13 14 14 14 13 13 13 12 12 11 11 10 10 9 9 8 7 7 6 6 5 4 4 4 4 5 6 7 7 7 7 6 7 7 4 3 4 6 8 6 4 5 7 9 10 11 11 11 11 11 12 12 13 14 14 14 13
14 13 17 21 24 25 25 26 25 24 23 22 21 19 17 16 14 14 13 12 12 11 11 11 12 12 12 12 12 13 14 14 14 14 13 12 11 10 9 8 8 7 7 7 6 6 5 5 4 3 3 3 5 6 8 8 8 9 10 10 9 6 3 2 4 5 7 6 5 7 8 9 10 10 11 11 11 11 11 12 13 13 13 13 12
15 14 15 17 21 23 25 25 25 24 24 23 22 21 19 17 15 14 13 12 12 12 12 12 12 12 11 11 12 13 14 14 14 14 13 12 11 10 9 7 6 6 6 6 6 5 5 4 3 3 3 4 6 7 7 8 9 9 10 10 8 5 2 2 4 5 5 6 6 8 9 9 10 10 10 10 10 11 11 11 12 12 12 12 11
18 16 15 17 19 21 25 25 25 24 24 24 23 22 20 18 17 15 14 13 13 12 12 12 12 12 11 11 12 12 13 14 14 14 13 12 11 10 8 7 6 6 5 5 5 5 5 4 4 4 4 6 6 6 7 8 9 10 11 10 8 5 2 2 3 5 5 6 7 8 9 9 10 9 9 9 10 11 11 11 10 10 10 10 10
20 19 17 18 19 21 24 25 25 25 24 24 23 22 21 20 18 16 14 14 13 12 12 12 11 11 10 11 11 11 13 13 14 13 12 12 11 10 9 7 7 6 6 5 6 5 5 5 6 7 7 7 6 5 6 8 10 11 10 9 7 4 2 3 4 5 5 5 7 8 9 9 9 9 8 9 9 9 9 8 8 8 8 8 8
22 22 19 19 18 21 24 26 26 25 25 24 23 23 22 20 18 16 14 14 13 12 12 11 11 11 10 10 10 11 12 12 13 13 13 12 11 10 9 8 7 6 7 6 6 7 7 7 7 7 7 6 4 4 7 9 10 11 9 7 5 2 3 4 4 4 4 6 7 8 8 8 8 8 8 7 7 7 7 7 8 8 8 8 9
24 22 20 18 17 20 24 25 26 26 26 24 24 23 21 20 17 16 14 14 13 12 11 10 10 10 10 10 10 10 10 12 13 13 13 12 11 10 9 8 7 7 7 7 8 8 8 7 7 6 5 4 5 6 7 8 9 9 8 5 2 1 3 4 3 2 4 6 7 7 7 7 6 6 6 6 6 7 8 9 9 9 9 9 9
24 21 19 17 15 19 23 26 26 25 26 24 24 23 21 20 17 16 14 14 12 12 11 10 10 9 10 10 10 10 10 11 12 13 13 12 11 10 9 9 8 8 8 9 8 7 5 4 4 3 3 5 7 8 8 8 7 6 5 3 2 2 3 4 2 2 5 6 6 6 6 5 4 4 5 5 6 7 8 8 9 9 9 9 9
23 22 20 17 14 16 20 24 25 25 24 23 23 22 21 20 18 17 15 14 13 12 11 10 10 9 11 11 10 10 11 12 12 12 12 11 11 10 10 9 9 9 9 9 7 5 3 3 3 3 4 7 7 7 8 8 6 4 4 4 4 3 3 2 2 4 5 6 5 4 4 4 4 4 4 5 5 5 6 6 6 7 7 8 7
23 22 19 17 15 15 18 22 24 24 23 22 22 21 20 19 17 17 15 15 14 12 10 8 9 10 11 11 10 11 13 13 13 12 11 11 11 10 10 10 10 10 9 8 5 4 4 5 6 6 5 6 6 5 5 5 3 2 6 7 6 4 3 2 3 5 6 5 4 3 4 4 4 4 5 5 5 5 5 6 7 7 7 6 6
23 22 20 18 16 15 16 20 22 23 22 22 22 20 20 19 18 17 16 15 13 11 8 7 8 10 10 10 12 14 15 15 13 11 11 11 11 11 10 10 11 10 9 8 6 6 6 6 6 6 5 5 5 3 1 2 2 3 8 9 7 4 2 2 4 5 6 5 4 4 4 4 4 5 6 6 6 6 7 8 8 8 8 8 10
24 23 21 19 17 15 16 18 20 20 21 22 22 21 20 19 19 18 17 15 13 10 8 8 9 9 9 11 14 15 16 15 13 12 12 13 12 11 10 11 11 10 9 7 6 7 8 8 6 4 4 5 5 2 2 3 2 5 10 8 6 3 0 3 5 5 5 5 5 5 5 6 7 8 9 9 8 8 8 8 8 8 8 9 10
23 22 22 21 19 17 16 16 17 17 19 21 22 22 21 20 20 18 17 15 13 11 10 9 8 8 8 12 15 14 14 13 13 13 13 13 13 12 12 12 11 10 9 5 2 3 6 8 7 4 4 4 2 3 2 1 4 9 9 7 5 2 2 4 5 5 5 5 6 7 8 9 10 10 10 10 10 10 9 9 8 8 8 8 9
23 24 23 22 21 19 16 15 15 15 17 19 21 23 22 20 19 18 17 15 13 11 10 9 7 7 8 11 14 15 14 12 13 15 14 14 14 13 12 11 9 9 9 4 1 2 5 7 7 7 5 4 2 2 2 6 9 10 8 7 5 3 3 4 5 5 5 7 8 9 9 10 11 10 11 11 11 11 10 10 9 9 9 10 10
26 25 25 24 22 20 18 16 15 15 17 19 20 22 20 19 19 19 17 16 14 12 11 9 7 6 7 11 16 16 14 13 15 16 16 15 13 11 10 10 9 8 7 3 2 4 6 6 6 7 6 6 4 3 6 8 10 10 7 5 4 3 3 4 6 6 7 9 9 9 10 11 12 11 11 11 11 11 10 10 10 10 10 11 12
28 26 26 26 22 20 19 17 16 16 18 20 19 19 18 19 20 19 18 17 15 13 11 9 7 6 8 14 18 17 15 15 15 14 13 12 11 10 9 9 8 7 6 4 4 8 9 8 8 10 8 5 4 7 10 9 7 7 5 4 3 3 4 5 6 8 9 10 10 11 11 11 10 10 10 11 10 10 10 10 10 10 11 12 13
28 28 28 27 23 21 20 18 17 18 19 20 19 17 17 19 19 19 18 17 15 14 12 10 9 9 12 19 21 19 17 15 15 13 12 12 12 11 11 10 8 8 8 6 7 10 10 11 13 14 10 6 6 8 10 8 6 5 4 4 3 3 4 5 7 9 11 11 11 12 11 9 9 9 10 10 10 10 10 11 11 10 11 13 14
29 30 30 27 24 22 21 20 19 20 20 20 19 17 17 18 18 19 19 17 15 14 12 12 11 12 16 22 23 20 18 17 17 16 14 14 13 12 13 12 10 10 9 9 10 11 12 13 15 13 11 10 9 8 7 6 6 5 4 3 2 3 4 6 7 9 11 11 11 11 9 8 9 10 10 11 10 11 11 12 12 11 11 13 15
30 31 30 28 26 24 23 22 21 23 23 20 19 18 17 17 17 19 19 17 16 14 13 14 14 15 19 23 22 20 19 18 18 17 16 15 13 11 12 12 11 11 10 11 12 13 13 14 14 12 13 14 11 9 7 6 7 6 5 3 2 2 4 6 7 8 8 8 7 7 6 7 7 8 9 9 10 11 12 13 13 13 13 14 15
30 31 31 30 29 26 25 24 23 26 26 22 20 19 18 18 18 19 19 18 17 16 16 16 16 17 19 21 21 20 19 18 16 17 17 16 12 11 11 11 12 12 11 13 14 14 14 14 15 13 14 15 13 11 10 8 8 7 5 4 2 1 4 7 7 6 5 5 4 4 4 6 7 8 8 9 9 10 11 12 13 14 14 16 17
32 31 31 30 29 28 26 25 25 28 29 27 23 20 20 19 19 20 21 20 19 18 18 18 18 18 19 20 20 20 18 17 16 17 17 16 14 12 11 11 12 13 12 14 15 15 14 13 16 16 15 15 14 13 12 11 9 9 8 6 4 2 4 6 4 3 3 4 5 6 7 7 8 9 9 10 10 10 11 11 12 13 15 16 17
34 33 31 30 30 29 27 25 27 29 31 29 25 22 22 21 21 22 22 22 22 21 21 21 20 19 20 20 19 19 18 17 17 17 15 15 15 14 12 11 12 14 13 14 16 16 14 13 15 19 17 14 14 14 14 13 12 11 10 8 5 2 3 2 2 3 4 6 7 8 9 9 9 9 11 11 11 11 12 13 13 14 15 16 17
35 34 33 32 31 30 27 26 28 31 32 29 25 25 25 24 24 25 25 25 24 24 22 21 21 20 21 20 19 19 18 17 17 16 14 13 14 15 13 12 13 14 14 16 17 17 15 12 14 19 19 16 15 14 15 15 14 13 11 8 5 2 2 4 5 6 8 8 9 9 10 10 10 11 12 12 12 12 13 14 14 15 16 17 18
36 34 34 34 33 31 29 27 29 33 34 31 27 28 29 28 28 28 28 27 26 26 23 21 20 21 21 20 19 19 18 18 17 16 14 13 14 15 14 13 14 15 16 17 17 16 15 13 13 17 19 18 16 16 16 16 15 14 12 9 6 6 7 7 8 9 10 10 10 10 11 11 11 12 12 12 12 12 13 14 15 16 17 17 18
36 35 36 35 34 31 29 28 30 34 36 33 30 30 30 31 31 30 28 27 27 26 24 21 21 22 22 20 19 18 18 18 17 17 15 14 15 15 14 14 15 16 17 17 17 16 15 14 14 15 18 19 18 18 18 17 15 13 10 10 10 10 9 9 10 12 12 12 12 11 11 11 11 12 12 13 13 13 14 15 16 16 16 17 16
36 37 37 35 34 32 30 29 29 33 37 36 33 31 30 31 30 28 27 28 27 25 24 22 22 22 21 19 18 17 17 17 17 17 16 15 15 15 15 15 15 16 17 17 17 17 16 14 13 15 18 19 18 19 19 18 16 14 10 9 11 10 9 9 10 13 13 14 13 12 11 10 10 11 12 13 13 14 15 16 16 15 15 14 13
38 39 38 36 34 32 32 32 30 32 37 38 36 33 30 30 29 27 26 27 27 26 25 24 23 22 22 20 19 18 17 17 17 17 16 16 15 15 16 16 16 17 17 17 17 17 17 15 14 15 19 20 19 19 19 19 18 15 12 9 11 10 8 10 12 15 16 15 15 13 12 10 9 9 10 12 14 15 16 16 15 13 12 11 10
41 40 40 37 33 32 33 33 32 32 36 39 37 34 32 31 31 29 28 28 29 29 28 28 27 25 23 22 20 19 18 17 17 17 16 16 16 16 16 17 17 18 18 17 17 17 17 16 15 16 19 20 20 20 20 21 20 17 14 10 9 8 9 13 14 15 15 14 13 13 13 12 11 10 10 12 14 16 16 15 13 11 10 10 12
43 41 39 35 31 32 34 34 33 32 36 39 38 35 34 35 35 34 32 32 33 33 31 30 29 26 24 22 21 20 19 18 17 17 17 17 17 17 17 17 17 18 18 18 17 17 17 16 16 17 19 20 19 18 19 22 21 19 18 15 10 7 9 15 15 14 15 12 11 12 12 13 13 12 12 12 14 16 16 14 11 9 10 11 14
44 41 37 33 31 33 34 34 33 33 36 39 39 36 35 36 37 35 35 35 36 35 32 30 28 25 23 22 21 20 19 18 18 18 18 18 18 17 17 18 18 18 18 17 17 16 16 16 17 18 19 19 18 17 17 20 22 20 20 18 15 10 8 11 13 13 15 13 11 11 12 12 12 13 12 11 12 13 15 14 10 9 10 13 15
45 41 36 32 32 34 34 34 33 33 37 39 39 37 37 38 37 36 35 35 35 33 30 29 26 25 24 23 21 20 19 18 18 18 18 18 18 17 18 18 18 18 17 17 16 15 15 15 17 18 18 17 16 16 15 17 20 21 20 19 17 14 11 11 10 8 11 15 15 12 11 11 12 12 11 9 9 10 12 13 10 8 11 14 15
45 40 34 32 34 35 35 34 32 33 36 39 39 38 38 38 38 37 35 34 33 31 29 28 26 24 24 23 22 21 20 19 18 18 19 18 18 17 18 18 17 17 17 16 15 15 15 15 16 17 17 16 15 14 12 14 18 21 20 18 16 15 14 13 10 8 9 13 15 14 12 12 13 12 9 7 7 7 9 11 9 9 11 13 14
44 37 33 33 35 36 35 34 32 31 35 39 40 39 38 39 38 37 35 34 33 31 29 27 26 25 24 24 23 22 21 20 19 19 19 19 18 18 18 18 17 17 17 16 15 15 15 15 16 16 17 17 15 13 12 12 16 19 19 18 16 15 16 15 13 11 10 10 13 15 13 13 14 12 9 6 5 5 7 9 9 9 11 12 13
42 37 34 35 37 38 36 34 31 30 33 38 40 39 38 38 37 36 34 32 32 32 30 28 27 25 24 24 23 22 21 20 20 20 20 19 18 18 18 18 17 17 17 16 15 14 15 15 15 16 16 17 15 13 12 12 13 15 16 16 15 15 15 14 13 13 13 11 13 17 16 15 14 13 11 7 4 3 4 7 8 10 11 11 13
Wind_Direction
168 173 163 154 156 157 152 153 152 152 147 145 141 139 136 132 130 127 123 118 115 113 109 107 106 105 106 107 106 108 111 115 117 120 121 121 123 122 118 119 114 103 90 73 69 75 82 89 97 103 106 109 108 106 106 106 105 104 102 98 95 90 85 82 80 77 73 70 64 56 51 48 46 45 48 47 47 48 48 50 49 45 42 41 40
162 169 165 157 158 158 154 155 153 153 149 146 143 141 137 133 132 128 124 119 117 113 109 107 105 105 105 106 108 110 112 115 117 119 119 120 127 127 119 117 113 103 87 76 77 81 88 97 103 107 108 108 107 107 106 105 104 101 98 95 92 87 83 81 79 76 71 66 62 55 48 44 42 40 38 38 36 37 38 39 37 34 34 34 33
160 164 165 160 160 160 156 156 155 154 151 148 144 143 138 135 133 128 125 121 118 112 110 106 104 103 103 105 108 110 109 108 108 108 107 111 117 120 118 117 113 102 89 86 87 90 97 102 105 106 106 107 108 107 105 104 102 99 96 93 89 84 79 78 78 77 71 62 56 53 47 39 37 36 32 29 27 27 29 28 25 24 25 27 25
165 163 164 163 162 163 159 158 156 155 153 151 147 144 140 137 133 130 127 123 120 115 110 105 103 101 101 105 108 108 106 103 100 100 103 108 112 114 118 119 114 103 97 96 96 100 103 105 105 105 106 107 107 106 105 104 101 99 98 94 89 83 79 77 78 80 71 62 54 49 45 38 33 35 31 24 22 22 23 23 21 22 22 23 22
169 167 166 165 166 165 161 160 158 158 156 154 150 146 144 140 135 132 130 126 124 116 109 104 102 100 100 103 105 106 104 104 103 101 102 108 112 113 116 118 115 108 105 103 104 107 107 106 106 106 107 107 107 106 105 104 103 103 100 94 88 83 79 74 71 72 66 59 53 45 42 38 35 36 34 26 23 22 22 22 22 23 22 23 23
176 172 170 167 168 167 164 163 161 161 159 158 154 150 147 142 138 136 134 131 126 116 109 105 101 100 101 102 102 103 102 103 105 105 104 107 111 113 115 116 116 113 110 108 110 111 109 108 108 109 108 108 107 106 106 106 107 104 100 96 90 83 78 72 64 59 55 54 49 38 37 36 33 34 34 27 22 21 19 19 20 21 20 20 21
184 177 174 171 171 170 167 167 165 164 162 162 158 154 149 145 142 140 139 134 126 117 111 106 103 102 101 102 103 103 105 105 106 109 108 110 113 114 116 118 118 116 114 112 112 113 112 112 111 111 110 110 110 109 109 110 109 106 103 102 96 88 80 73 66 57 49 51 44 33 35 33 30 31 30 27 21 18 17 16 17 17 18 18 18
189 184 180 174 174 174 171 170 169 167 165 165 162 157 152 148 146 144 143 134 126 119 114 109 105 105 104 106 106 107 109 110 111 113 112 115 116 117 118 119 120 119 117 115 114 114 113 113 113 113 112 113 112 112 113 113 112 108 106 106 102 95 84 74 69 62 53 52 44 35 37 30 29 30 27 25 20 17 16 15 14 14 14 14 13
189 188 185 179 178 177 175 174 173 171 169 167 165 160 155 151 150 149 144 134 128 122 116 111 108 107 108 110 112 113 113 114 115 115 117 118 119 118 119 120 121 120 118 117 115 114 114 114 114 114 114 114 114 115 115 115 111 106 104 105 104 100 92 77 61 60 57 52 43 33 31 27 27 27 24 21 18 17 15 13 11 10 10 8 7
189 188 188 185 182 181 180 178 176 174 171 169 168 163 158 154 154 152 145 136 130 125 120 113 113 112 112 115 117 118 118 119 119 119 120 121 122 121 122 123 123 122 120 120 118 116 116 115 115 114 115 115 115 116 116 114 107 103 104 106 105 100 94 80 46 48 55 49 39 27 21 21 20 19 20 18 14 15 13 12 11 9 8 5 4
191 188 189 189 187 185 184 182 180 178 174 171 170 166 160 158 157 155 148 140 134 130 125 119 118 117 117 120 123 125 124 123 123 124 124 124 125 124 125 126 126 125 124 123 122 120 118 117 116 115 115 115 115 116 116 113 105 103 107 110 107 100 90 77 44 29 49 51 36 26 18 13 10 9 14 15 11 13 12 12 11 9 8 6 4
190 190 189 192 190 189 187 184 183 180 176 173 172 168 163 161 160 158 152 143 137 135 130 127 123 122 123 125 130 131 129 128 128 129 128 128 128 128 129 129 129 128 127 127 126 124 122 120 118 116 115 114 114 114 114 111 106 106 111 112 109 101 87 73 54 30 47 53 36 25 16 9 5 3 9 12 10 10 10 11 9 8 5 4 3
189 190 191 193 191 192 188 186 186 182 177 174 173 170 167 165 164 161 155 146 141 139 137 134 128 126 128 131 135 136 135 134 133 134 133 133 132 131 131 131 131 130 130 130 130 127 125 122 118 116 112 110 109 109 109 106 105 111 114 110 110 100 82 72 58 40 43 44 33 25 11 1 1 1 6 9 9 7 8 8 6 4 0 359 358
193 193 194 193 192 193 189 187 188 185 180 177 175 172 171 169 167 164 157 149 145 145 143 139 134 131 133 136 139 140 141 139 138 139 138 137 136 136 134 134 133 132 133 132 133 129 126 122 116 113 108 106 105 104 104 101 103 111 112 96 103 104 80 73 61 44 48 48 39 25 3 351 357 359 2 6 6 4 4 4 360 357 354 353 351
203 201 198 193 192 191 188 188 188 187 183 179 177 174 173 172 170 167 159 153 152 151 149 144 139 135 137 140 143 145 146 144 143 143 143 142 141 141 139 138 136 135 136 135 135 131 128 123 115 110 103 102 100 98 94 92 94 94 91 68 79 99 83 75 65 50 61 75 59 16 353 346 353 356 357 2 3 359 358 357 351 348 346 346 344
211 209 200 194 194 191 187 186 188 188 184 181 178 176 175 174 172 169 164 159 158 157 152 147 142 139 142 144 148 151 150 149 147 147 147 146 145 144 142 140 139 138 137 137 137 134 129 122 112 106 99 96 92 87 78 75 73 57 54 55 68 83 80 84 65 45 53 77 49 357 348 346 348 350 353 357 356 352 350 346 342 338 337 337 337
204 206 200 196 196 193 189 185 186 187 184 182 178 178 177 176 176 172 168 165 163 161 155 149 147 146 148 150 153 155 155 154 152 152 151 150 149 148 147 145 143 140 139 138 137 135 130 124 112 103 96 91 86 81 74 69 62 51 48 58 89 87 76 78 59 50 47 50 19 350 350 347 346 346 347 349 348 345 341 337 334 330 329 330 331
193 197 199 199 198 196 193 187 185 185 184 182 179 179 179 179 179 174 173 171 168 164 158 153 152 153 154 156 158 159 159 159 158 157 156 155 153 152 153 150 148 145 144 142 139 137 130 126 117 110 110 100 97 93 82 72 66 62 61 74 101 91 68 56 44 51 49 38 14 352 347 345 344 342 339 339 339 336 333 329 325 321 322 325 331
190 190 196 202 203 202 197 191 186 184 184 183 180 179 181 182 181 178 177 175 172 167 162 157 158 159 160 160 162 163 163 163 163 162 162 160 158 158 158 155 155 151 148 146 141 138 129 126 126 130 127 114 113 103 85 76 76 74 75 85 101 90 60 44 31 41 41 25 2 349 343 342 341 339 336 333 333 330 326 322 317 315 318 324 334
189 195 198 203 206 208 203 197 189 184 185 183 181 180 181 182 182 181 178 176 173 169 165 163 165 164 164 164 164 166 165 166 167 168 168 166 166 165 166 167 165 161 155 148 143 139 137 138 142 140 117 117 120 105 87 78 81 82 84 88 97 94 66 24 28 36 25 1 345 342 341 341 341 339 337 335 333 328 322 318 315 316 320 327 335
187 198 207 208 207 209 206 202 193 187 185 183 181 180 181 182 184 181 176 175 171 170 169 167 170 169 171 169 167 168 166 168 170 172 173 170 171 170 171 175 174 171 159 147 142 140 143 145 142 128 114 121 125 110 91 85 86 85 87 88 94 99 72 6 29 32 10 346 339 338 339 341 340 341 343 341 333 326 322 320 321 325 330 338 343
189 195 207 213 212 210 206 203 196 189 186 183 181 181 182 184 186 179 173 173 172 173 173 171 172 173 176 175 172 170 167 168 170 173 175 174 173 171 171 174 177 171 159 152 147 143 140 142 137 128 127 131 138 123 97 97 92 82 85 92 97 96 48 25 32 26 4 341 336 334 338 342 344 348 354 348 337 331 331 335 342 347 352 357 356
196 197 204 212 216 211 206 202 196 190 186 184 181 183 184 185 185 177 173 174 174 176 174 174 174 176 180 181 179 173 169 169 171 172 173 175 175 175 173 172 176 168 160 157 147 143 138 140 142 141 141 139 143 117 97 101 91 82 87 93 93 76 50 52 41 22 350 330 330 333 339 347 352 359 2 356 355 357 3 13 14 13 13 13 9
202 202 204 208 211 208 206 201 198 193 187 185 182 185 186 185 183 175 175 176 174 176 175 178 178 178 183 187 187 178 174 173 172 172 171 175 177 178 175 172 173 167 162 157 151 152 148 147 150 148 140 126 120 100 95 104 95 92 94 91 90 55 65 74 62 13 331 325 331 338 341 348 356 7 10 9 21 24 28 32 25 20 17 17 18
202 204 204 203 204 203 205 200 198 195 189 187 184 186 187 183 180 174 177 177 174 176 177 183 184 183 187 193 191 180 180 179 173 170 170 172 175 175 171 169 166 162 160 158 157 156 147 142 148 144 124 118 115 99 94 106 100 99 105 112 144 90 72 84 68 332 325 331 339 347 344 351 359 10 24 27 34 30 26 26 25 22 14 15 17
204 206 199 194 194 192 199 199 198 196 190 189 188 188 186 182 180 177 177 175 173 175 179 188 189 189 193 196 192 184 183 179 170 167 167 167 167 166 162 161 158 159 164 164 161 145 113 96 111 117 121 119 115 100 96 104 91 92 146 164 149 119 91 86 17 327 328 330 337 352 354 9 17 18 25 23 20 14 7 6 7 3 3 11 6
207 206 194 184 181 181 190 195 196 195 191 191 192 188 185 183 180 179 176 174 175 176 181 187 185 190 193 192 186 183 181 172 164 161 161 160 158 155 154 155 157 160 162 160 151 119 86 84 103 112 115 112 115 107 103 112 95 139 175 165 143 131 108 55 338 323 318 315 324 349 360 13 25 24 12 3 360 349 341 340 333 331 339 338 319
210 204 191 181 173 177 185 189 192 190 188 191 191 187 183 182 179 177 173 174 179 175 173 173 178 183 184 184 179 178 176 165 156 153 150 148 144 141 146 153 158 156 152 151 144 126 111 101 97 100 102 95 99 93 130 210 272 200 169 154 145 140 104 348 323 314 304 303 314 335 350 1 4 1 353 347 344 336 332 328 323 322 317 304 301
211 201 190 183 170 173 181 183 183 180 184 188 187 184 181 181 179 176 173 175 180 169 159 167 175 172 167 177 178 174 171 160 151 147 138 134 133 136 146 159 167 165 158 156 148 142 140 124 96 92 100 90 81 35 302 276 273 170 159 153 150 143 359 317 318 313 306 306 313 329 334 337 340 340 339 338 337 336 337 334 331 330 321 315 317
208 201 191 186 174 173 179 177 175 174 182 185 184 182 181 182 179 176 176 176 177 165 159 166 163 153 154 169 174 168 162 153 147 144 138 141 152 161 168 173 178 175 169 168 138 153 160 135 118 136 127 105 79 3 1 107 149 155 158 154 147 155 278 305 316 313 310 312 317 326 328 329 332 334 338 344 349 354 356 359 1 359 358 353 349
203 201 193 189 181 178 178 176 179 179 182 184 183 182 181 182 179 177 177 177 176 167 161 161 149 147 154 167 175 168 157 150 147 152 160 168 175 179 180 179 182 180 178 189 176 182 169 138 144 168 157 155 185 357 90 133 147 152 152 153 161 201 266 300 308 307 308 314 320 325 330 333 334 341 350 359 7 14 18 20 21 17 19 15 10
201 202 194 191 187 184 180 178 185 187 185 183 180 181 181 182 182 179 176 176 177 171 163 158 152 158 165 180 184 172 163 164 162 166 176 182 187 188 186 184 192 195 191 196 177 183 172 142 159 176 171 183 191 161 155 152 152 155 160 175 196 234 275 303 311 318 322 325 330 335 338 339 343 353 4 15 20 25 31 32 29 26 29 28 26
200 202 195 193 192 189 183 181 189 193 189 182 177 181 181 184 186 179 175 179 180 176 168 157 164 185 191 190 185 173 173 179 174 175 182 191 200 202 200 196 205 215 214 217 194 185 174 156 159 161 158 172 162 155 166 168 167 170 190 218 227 260 296 317 326 333 335 335 336 339 340 343 352 5 15 25 27 29 37 41 38 35 38 36 36
195 197 195 194 195 191 186 187 194 197 193 184 182 184 183 188 187 177 179 184 182 179 171 162 180 207 201 189 183 178 183 185 181 186 192 202 213 218 221 219 225 229 227 227 203 183 171 163 161 156 157 172 161 159 172 178 183 193 208 235 255 289 316 329 338 339 337 335 334 339 345 357 10 18 26 36 39 41 45 49 45 41 43 40 40
192 193 194 195 194 192 191 192 196 199 197 188 188 190 186 192 188 180 186 190 186 182 176 175 192 208 198 188 185 186 189 188 189 195 199 208 218 224 226 226 230 229 228 222 200 184 174 168 162 159 168 178 171 171 186 188 188 201 203 218 273 315 329 334 343 340 335 334 337 343 355 15 23 25 30 36 41 44 48 51 49 45 48 46 42
191 191 192 194 192 194 196 195 196 200 199 192 193 196 193 195 193 187 191 193 191 189 187 190 199 202 193 188 190 194 195 192 194 200 203 209 217 219 218 219 222 223 223 215 199 187 181 173 167 167 175 179 181 186 193 198 195 194 191 199 272 311 325 334 336 330 330 338 345 353 12 34 41 42 43 41 38 39 42 45 46 46 48 47 44
191 190 190 192 193 195 198 198 198 199 198 196 197 201 199 198 199 195 194 196 196 196 197 200 203 199 191 189 195 201 199 196 199 206 209 211 212 214 214 214 216 220 218 209 199 192 188 182 174 175 181 183 189 196 193 197 197 186 185 202 212 274 320 325 323 324 337 357 21 42 55 61 63 65 65 61 56 53 51 48 46 46 46 45 45
192 192 192 193 194 194 195 198 200 198 197 198 199 202 201 199 203 201 197 199 199 200 205 208 207 201 196 195 198 202 201 199 202 208 211 211 211 212 214 213 214 219 218 207 200 197 194 188 182 183 187 190 196 201 198 196 193 183 178 179 177 216 313 322 325 347 15 44 67 74 77 76 71 71 71 69 69 67 63 60 55 51 48 45 44
192 193 193 193 193 193 193 196 200 198 196 199 200 200 199 199 204 203 200 201 201 204 208 208 206 202 201 202 202 204 205 206 207 209 209 208 212 214 214 215 215 217 216 207 203 203 200 191 187 190 191 193 200 203 201 196 188 182 180 174 175 229 321 2 64 69 69 70 71 77 82 79 75 73 71 69 67 64 62 60 58 53 49 45 43
191 193 192 192 192 191 190 193 200 199 196 198 196 195 196 198 203 203 200 201 203 207 208 206 204 203 205 206 206 208 209 211 212 211 209 207 212 215 216 218 219 217 212 206 206 207 206 196 189 194 194 191 196 202 204 199 188 177 174 175 171 144 90 95 95 90 85 79 77 82 85 82 78 75 71 68 63 60 59 56 54 50 47 43 41
192 193 193 192 191 189 188 192 198 199 197 197 193 193 197 199 202 201 198 200 204 206 203 203 204 204 206 208 208 211 212 214 215 213 213 212 212 214 215 218 220 216 210 207 207 207 209 207 196 195 198 197 196 199 204 206 196 180 169 167 157 130 111 103 96 90 85 84 86 86 87 85 82 77 73 69 64 61 58 53 50 46 43 39 37
192 195 195 192 189 189 192 195 198 199 200 200 197 197 203 205 204 200 198 202 204 202 200 202 205 205 207 208 208 210 212 216 217 216 216 218 218 216 215 216 218 216 210 209 211 210 210 214 209 201 200 203 203 202 206 208 203 196 188 170 155 138 115 103 95 94 95 94 91 88 86 85 83 82 77 71 65 60 55 51 48 43 39 36 33
193 195 196 191 189 192 196 198 199 201 202 203 203 203 207 210 206 201 200 203 203 200 201 205 207 208 208 209 210 212 216 219 218 217 219 222 222 220 217 217 219 218 214 213 215 215 213 214 217 212 200 200 203 206 209 210 204 200 199 183 169 152 124 112 105 103 105 101 95 90 86 83 82 82 77 71 66 58 53 48 43 40 38 35 29
194 194 194 191 192 196 198 199 201 203 203 204 207 207 208 209 206 203 204 205 202 198 201 207 210 211 212 214 217 217 220 222 221 219 219 221 222 220 219 219 220 219 217 217 217 217 219 218 223 219 205 198 201 207 211 213 212 206 198 184 176 170 148 132 124 118 113 104 98 90 83 80 75 76 74 69 64 55 48 43 38 35 38 35 28
196 196 194 193 197 201 199 199 203 205 203 204 206 208 209 206 203 203 206 206 202 199 201 205 209 212 214 218 219 219 221 224 223 220 217 220 223 220 219 219 220 221 219 219 222 223 225 227 231 226 213 203 201 208 215 216 218 217 214 198 177 183 179 157 139 128 124 113 101 89 80 75 68 67 68 64 60 51 40 36 35 33 40 36 33
198 197 194 195 202 203 199 200 205 205 204 205 206 208 209 208 204 203 205 204 201 201 202 205 208 212 216 218 218 218 220 223 222 219 217 219 223 221 221 221 222 224 223 223 228 231 232 234 235 229 219 213 207 210 217 219 217 217 222 220 206 208 195 175 161 144 136 124 107 97 84 72 65 62 61 57 53 45 31 24 29 34 41 39 38
198 196 194 197 203 202 199 202 206 207 206 207 208 209 210 210 208 206 206 205 202 202 204 208 212 215 217 217 216 218 219 220 218 218 218 219 221 222 222 222 222 224 226 228 233 236 238 237 234 228 223 221 216 214 218 221 220 219 223 227 223 232 233 204 189 168 155 143 126 112 96 81 71 69 69 60 48 40 23 12 20 40 43 40 41
197 194 194 198 202 200 201 205 208 209 209 209 209 210 212 212 210 208 209 208 206 205 206 209 213 217 218 216 216 217 217 216 217 219 219 218 221 224 225 223 223 226 228 232 237 241 245 239 230 227 228 226 220 220 224 225 224 224 226 228 226 232 236 221 211 198 177 159 143 129 110 94 85 86 89 74 51 36 18 6 15 43 44 41 41
196 195 195 197 199 199 202 206 209 211 211 211 210 211 214 213 210 210 211 210 209 210 210 210 213 216 217 217 216 218 218 218 218 220 220 218 221 226 228 226 227 231 234 239 244 247 249 240 227 227 232 233 229 229 234 229 225 228 231 229 225 221 213 203 201 200 186 164 150 142 127 110 104 108 109 92 66 41 17 5 13 38 43 42 41
196 196 195 196 197 197 200 206 210 213 212 212 211 212 213 211 210 211 212 211 210 211 212 212 213 213 215 217 217 219 221 220 218 219 219 218 222 227 229 229 230 234 237 242 248 250 249 238 227 228 233 237 238 238 239 231 224 227 232 232 227 219 209 204 198 187 181 168 154 146 133 122 122 126 124 107 77 49 18 359 8 33 40 38 33
193 194 194 196 197 196 200 206 211 214 214 213 212 212 210 209 211 213 214 213 211 211 212 212 213 213 214 217 219 220 221 221 221 220 219 220 224 228 230 233 234 236 238 244 250 247 241 232 226 229 234 238 241 240 236 229 224 224 227 231 231 227 222 219 210 194 188 181 160 146 135 133 136 136 132 123 88 42 6 356 10 28 32 27 21